KD2FKI Weather Reports


time (UTC)temp
F
wind
direction
speed
knots
gust
knots
rain 1hr
in
rain 24hr
in
rain mn
in
humidity
%
barometer
mb
20260504151034 69 0.0 0.0 0.00 0.00 0.00 40
20260504150140 68 0.0 0.0 0.00 0.00 0.00 41
20260504141045 65 0.0 0.0 0.00 0.00 0.00 43
20260504081037 48 0.0 0.0 0.00 0.00 0.00 72
20260504045032 42 0.0 0.0 0.00 0.00 0.00 75
20260504044042 42 0.0 0.0 0.00 0.00 0.00 75
20260504043049 42 0.0 0.0 0.00 0.00 0.00 76
20260504042036 43 0.0 0.0 0.00 0.00 0.00 75
20260504041104 43 0.0 0.0 0.00 0.00 0.00 74
20260504040035 43 0.0 0.0 0.00 0.00 0.00 73
20260504035044 44 0.0 0.0 0.00 0.00 0.00 70
20260504034031 44 0.0 0.0 0.00 0.00 0.00 68
20260504033041 44 0.0 0.0 0.00 0.00 0.00 69
20260504032030 44 0.0 0.0 0.00 0.00 0.00 69
20260504031040 45 0.0 0.0 0.00 0.00 0.00 68
20260504030046 45 0.0 0.0 0.00 0.00 0.00 69
20260504025036 46 0.0 0.0 0.00 0.00 0.00 64
20260504024044 46 0.0 0.0 0.00 0.00 0.00 61
20260504023034 47 0.0 0.0 0.00 0.00 0.00 60
20260504022042 48 0.0 0.0 0.00 0.00 0.00 59
20260504021032 48 0.0 0.0 0.00 0.00 0.00 56
20260504020038 49 0.0 0.0 0.00 0.00 0.00 56
20260504015045 50 0.0 0.0 0.00 0.00 0.00 53
20260504014037 51 0.0 0.0 0.00 0.00 0.00 52
20260504013043 52 0.0 0.0 0.00 0.00 0.00 50
20260504012034 53 0.0 0.0 0.00 0.00 0.00 47
20260504011041 55 0.0 0.0 0.00 0.00 0.00 43
20260504010032 56 0.0 0.0 0.00 0.00 0.00 41
20260504005038 57 0.0 0.0 0.00 0.00 0.00 39
20260504004046 58 0.0 0.0 0.00 0.00 0.00 37
20260504003036 59 0.0 0.0 0.00 0.00 0.00 37
20260504002043 59 0.0 0.0 0.00 0.00 0.00 37
20260504001035 59 0.0 0.0 0.00 0.00 0.00 36
20260504000041 60 0.0 0.0 0.00 0.00 0.00 35
20260503235031 61 0.0 0.0 0.00 0.00 0.00 34
20260503234057 62 0.0 0.0 0.00 0.00 0.00 33
20260503233046 63 0.0 0.0 0.00 0.00 0.00 32
20260503232036 65 0.0 0.0 0.00 0.00 0.00 30
20260503231044 66 0.0 0.0 0.00 0.00 0.00 30
20260503230052 66 0.0 0.0 0.00 0.00 0.00 29
20260503225042 68 0.0 0.0 0.00 0.00 0.00 29
20260503224031 67 0.0 0.0 0.00 0.00 0.00 29
20260503223039 67 0.0 0.0 0.00 0.00 0.00 29
20260503222029 67 0.0 0.0 0.00 0.00 0.00 30
20260503221038 68 0.0 0.0 0.00 0.00 0.00 29
20260503220045 68 0.0 0.0 0.00 0.00 0.00 28
20260503215034 68 0.0 0.0 0.00 0.00 0.00 29
20260503214042 69 0.0 0.0 0.00 0.00 0.00 28
20260503213032 69 0.0 0.0 0.00 0.00 0.00 27
20260503212039 66 0.0 0.0 0.00 0.00 0.00 30
20260503211030 66 0.0 0.0 0.00 0.00 0.00 30
20260503210041 66 0.0 0.0 0.00 0.00 0.00 31
20260503205048 66 0.0 0.0 0.00 0.00 0.00 30
20260503204039 66 0.0 0.0 0.00 0.00 0.00 31
20260503203043 65 0.0 0.0 0.00 0.00 0.00 31
20260503202032 66 0.0 0.0 0.00 0.00 0.00 31
20260503201040 65 0.0 0.0 0.00 0.00 0.00 32
20260503200030 64 0.0 0.0 0.00 0.00 0.00 32
20260503195041 65 0.0 0.0 0.00 0.00 0.00 32
20260503194047 64 0.0 0.0 0.00 0.00 0.00 33
20260503193035 64 0.0 0.0 0.00 0.00 0.00 33
20260503192044 64 0.0 0.0 0.00 0.00 0.00 33
20260503191033 63 0.0 0.0 0.00 0.00 0.00 35
20260503190043 61 0.0 0.0 0.00 0.00 0.00 35
20260503185034 63 0.0 0.0 0.00 0.00 0.00 35
20260503184039 63 0.0 0.0 0.00 0.00 0.00 35
20260503183047 63 0.0 0.0 0.00 0.00 0.00 36
20260503182038 61 0.0 0.0 0.00 0.00 0.00 37
20260503181044 63 0.0 0.0 0.00 0.00 0.00 35
20260503180035 62 0.0 0.0 0.00 0.00 0.00 38
20260503175042 59 0.0 0.0 0.00 0.00 0.00 38
20260503174033 61 0.0 0.0 0.00 0.00 0.00 38
20260503173040 61 0.0 0.0 0.00 0.00 0.00 38
20260503172046 60 0.0 0.0 0.00 0.00 0.00 38
20260503171036 59 0.0 0.0 0.00 0.00 0.00 38
20260503170124 59 0.0 0.0 0.00 0.00 0.00 38